[[{"header":{"parameterUnit":"m.s-1","parameterCategory":1,"la1":30.2991,"la2":30.254,"lo1":-89.0895,"lo2":-89.0444,"dy":0.0017,"dx":0.0017,"nx":28,"ny":28,"refTime":"2025-09-06T21:00:00:Z","depth":0,"parameterNumber":2,"parameterNumberName":"U-component_of_WINDS"},"data":[0,0,0,0,0,0,0,0,0,0,0,0,0,0,0,0,0,0,0,0,0,0,0,0,0,0,0,0,0,0,0,0,0,0,0,0,0,0,0,0,0,0,0,0,0,0,0,0,0,0,0,0,0,0,0,0,0,0,0.4894,0.4898,0,0.5317,0.5322,0.5326,0.552,0.5519,0.5519,0.5518,0.5948,0.596,0.5971,0,0,0,0,0,0,0,0,0,0,0,0,0,0.4256,0.4267,0.4893,0.4899,0.4904,0.5316,0.5322,0.5328,0.552,0.5519,0.5519,0.5518,0.5944,0.5958,0.5973,0,0,0,0,0,0,0,0,0,0,0,0,0,0.4591,0.427,0.4893,0.505,0.5068,0.5315,0.5322,0.5329,0.552,0.5519,0.5519,0.5518,0.594,0.5957,0.5974,0.6096,0,0,0.6029,0.6036,0,0,0,0,0,0,0,0,0.4572,0.4614,0.5021,0.5039,0.506,0.5365,0.5255,0.5586,0.552,0.5348,0.5518,0.5518,0.5754,0.5787,0.5868,0.6116,0.6134,0.603,0.6041,0.6049,0.6054,0,0,0,0,0,0,0,0.4548,0.4597,0.5061,0.5027,0.5051,0.51,0.5147,0.5319,0.5549,0.5363,0.5378,0.5426,0.5765,0.585,0.5879,0.6141,0.603,0.6045,0.6056,0.6063,0.6516,0.6518,0,0,0,0,0,0,0.4499,0.4577,0.5048,0.5074,0.481,0.5112,0.5165,0.5268,0.5548,0.559,0.5426,0.5433,0.582,0.5858,0.5895,0.606,0.6048,0.6065,0.6075,0.6515,0.6517,0.6518,0,0,0,0,0,0,0.4485,0.454,0.5031,0.483,0.4896,0.5124,0.5238,0.5276,0.5362,0.5596,0.5638,0.547,0.5821,0.587,0.6046,0.6077,0.6073,0.6089,0.6513,0.6516,0.6518,0.6387,0,0,0,0,0,0,0.4466,0.4533,0.458,0.4829,0.4906,0.5173,0.524,0.5285,0.5392,0.5406,0.5649,0.5688,0.5825,0.6019,0.6064,0.6102,0.6103,0.6512,0.6514,0.6517,0.6389,0.6384,0.638,0,0,0,0,0,0.4442,0.4525,0.4582,0.4637,0.4969,0.5174,0.5218,0.5375,0.5394,0.5445,0.5596,0.568,0.6067,0.6035,0.6088,0.6131,0.651,0.6514,0.6517,0.6392,0.6385,0.638,0,0,0,0,0,0,0.4271,0.456,0.4626,0.4791,0.4957,0.5207,0.5274,0.5362,0.5525,0.5531,0.5717,0.5771,0.5931,0.6049,0.6009,0.6267,0.6297,0.631,0.6183,0.618,0.6175,0.6143,0.6118,0,0,0,0,0,0.4253,0.4395,0.464,0.4762,0.4842,0.5044,0.5139,0.5246,0.5424,0.5495,0.5659,0.5829,0.599,0.6091,0.6251,0.6408,0.6466,0.6465,0.646,0.6455,0.6464,0.6561,0.6564,0.6529,0.6529,0.6529,0,0,0.4215,0.4391,0.4468,0.4732,0.4873,0.5018,0.5101,0.5249,0.5359,0.5517,0.5695,0.5821,0.6024,0.6192,0.6274,0.6295,0.6488,0.6459,0.6453,0.6466,0.6565,0.6568,0.657,0.6531,0.653,0.653,0,0,0.4222,0.4368,0.4488,0.4629,0.4843,0.4978,0.5007,0.5246,0.5337,0.5518,0.5642,0.5776,0.6047,0.6188,0.6295,0.6363,0.6448,0.641,0.6385,0.6477,0.648,0.6483,0.651,0.6517,0.6419,0.6419,0.6419,0,0.4148,0.4371,0.4538,0.4682,0.4796,0.495,0.5075,0.5204,0.5458,0.5534,0.5554,0.5903,0.605,0.6255,0.6273,0.6353,0.6394,0.6382,0.6466,0.6471,0.6477,0.6505,0.6514,0.6413,0.6413,0.6414,0.6415,0,0.4272,0.4425,0.4497,0.4742,0.4864,0.4997,0.5187,0.5291,0.5389,0.5522,0.5708,0.5891,0.6093,0.615,0.6245,0.6372,0.6379,0.643,0.6464,0.6471,0.6501,0.6513,0.6404,0.6406,0.6408,0.641,0,0,0.4177,0.4519,0.4542,0.4658,0.4909,0.5031,0.5173,0.5374,0.5461,0.5633,0.5759,0.5988,0.604,0.6161,0.6275,0.6355,0.6403,0.6399,0.6406,0.6395,0.6557,0.6517,0.6527,0.6461,0.6464,0.6466,0.6541,0,0.422,0.4481,0.464,0.4838,0.4984,0.5136,0.5261,0.5429,0.5559,0.5703,0.5846,0.6008,0.6061,0.6137,0.6224,0.6378,0.6438,0.6375,0.6581,0.6586,0.6526,0.6542,0.6499,0.6561,0.6553,0.6555,0.6557,0,0.4302,0.4475,0.4687,0.4928,0.4996,0.5104,0.5305,0.544,0.5635,0.5725,0.5864,0.598,0.6139,0.616,0.6383,0.6337,0.6432,0.6521,0.6527,0.6552,0.6571,0.6569,0.6584,0.6593,0.6576,0.6575,0.6573,0,0.4215,0.45,0.4666,0.476,0.5044,0.5118,0.524,0.5436,0.5548,0.5724,0.5799,0.5989,0.6093,0.6238,0.6403,0.6403,0.6611,0.6645,0.6691,0.6687,0.6727,0.6722,0.6758,0.6786,0.6785,0.6785,0.6785,0,0.4245,0.437,0.4632,0.4733,0.488,0.5063,0.5203,0.5337,0.5512,0.5644,0.5787,0.5908,0.6118,0.6266,0.6396,0.6564,0.6609,0.6686,0.672,0.6674,0.6664,0.6738,0.6739,0.6788,0.6787,0.6787,0.6786,0,0.417,0.435,0.4542,0.4798,0.4865,0.4962,0.5182,0.5288,0.5428,0.5594,0.5644,0.5863,0.6046,0.6226,0.6469,0.6557,0.6723,0.6767,0.6657,0.6676,0.6712,0.6706,0.6797,0.682,0.6829,0.6829,0.6829,0,0.4178,0.4278,0.4547,0.4647,0.4766,0.4925,0.5042,0.5229,0.5345,0.558,0.5659,0.5852,0.6017,0.6302,0.6483,0.6671,0.6722,0.6741,0.6751,0.6704,0.6725,0.6717,0.673,0.6735,0.6733,0.6733,0.6732,0,0.4173,0.4259,0.4422,0.462,0.4757,0.492,0.5089,0.5163,0.5382,0.5506,0.5696,0.5824,0.6077,0.6268,0.648,0.6607,0.6707,0.6728,0.675,0.6704,0.6637,0.6676,0.6644,0.6725,0.6725,0.6726,0.6726,0.6727,0.4141,0.424,0.4446,0.4626,0.4774,0.493,0.5044,0.5201,0.5363,0.5584,0.5685,0.5877,0.6077,0.6372,0.6498,0.6652,0.6677,0.6706,0.6714,0.6718,0.671,0.6613,0.669,0.6691,0.6691,0.6692,0.6692,0,0.4145,0.4287,0.4451,0.4685,0.4828,0.4913,0.5106,0.522,0.5387,0.5566,0.5728,0.5949,0.6137,0.6336,0.6536,0.6621,0.6672,0.6667,0.6663,0.6692,0.6674,0.6637,0.6623,0.6623,0.6623,0.6623,0.6623,0.6623,0.4164,0.4337,0.4449,0.4698,0.4841,0.5031,0.5135,0.5281,0.5426,0.5667,0.5825,0.5955,0.6144,0.636,0.6537,0.6592,0.6659,0.6641,0.6708,0.6687,0.6692,0.6696,0.6663,0.6654,0.6654,0.6713,0.6714,0.6714]},{"header":{"parameterUnit":"m.s-1","parameterCategory":1,"la1":30.2991,"la2":30.254,"lo1":-89.0895,"lo2":-89.0444,"dy":0.0017,"dx":0.0017,"nx":28,"ny":28,"refTime":"2025-09-06T21:00:00:Z","depth":0,"parameterNumber":3,"parameterNumberName":"V-component_of_WINDS"},"data":[0,0,0,0,0,0,0,0,0,0,0,0,0,0,0,0,0,0,0,0,0,0,0,0,0,0,0,0,0,0,0,0,0,0,0,0,0,0,0,0,0,0,0,0,0,0,0,0,0,0,0,0,0,0,0,0,0,0,2.7154,2.7153,0,2.7059,2.7058,2.7056,2.7061,2.7062,2.7064,2.7065,2.6954,2.695,2.6946,0,0,0,0,0,0,0,0,0,0,0,0,0,2.7326,2.7323,2.7154,2.7153,2.7152,2.7059,2.7058,2.7056,2.7061,2.7063,2.7064,2.7066,2.6956,2.695,2.6945,0,0,0,0,0,0,0,0,0,0,0,0,0,2.7243,2.7322,2.7154,2.7143,2.7141,2.7059,2.7057,2.7056,2.706,2.7063,2.7065,2.7067,2.6957,2.6951,2.6945,2.6863,0,0,2.6925,2.6922,0,0,0,0,0,0,0,0,2.7248,2.7236,2.7146,2.7144,2.7141,2.7074,2.7078,2.6991,2.706,2.7091,2.7065,2.7068,2.6991,2.6982,2.696,2.6858,2.6853,2.6925,2.6921,2.6918,2.6916,0,0,0,0,0,0,0,2.7253,2.724,2.7116,2.7144,2.7142,2.7138,2.7129,2.7061,2.703,2.7088,2.7088,2.7078,2.699,2.6966,2.6957,2.6852,2.6925,2.6919,2.6915,2.6913,2.6674,2.6671,0,0,0,0,0,0,2.7263,2.7245,2.7119,2.7113,2.7201,2.7134,2.7123,2.7093,2.7031,2.7024,2.7076,2.7078,2.6976,2.6964,2.6953,2.6849,2.6918,2.6912,2.6908,2.6676,2.6673,2.667,0,0,0,0,0,0,2.7267,2.7252,2.7123,2.7179,2.7163,2.7129,2.7095,2.709,2.7066,2.7022,2.7015,2.7057,2.6977,2.6962,2.6885,2.6846,2.6909,2.6903,2.6679,2.6675,2.6672,2.6644,0,0,0,0,0,0,2.7272,2.7254,2.7225,2.7179,2.716,2.7061,2.7093,2.7087,2.7056,2.7058,2.7002,2.6995,2.6977,2.6895,2.6879,2.6838,2.6898,2.6682,2.6677,2.6673,2.6649,2.664,2.6633,0,0,0,0,0,2.7278,2.7219,2.7224,2.7209,2.7125,2.7059,2.7047,2.7032,2.7053,2.7022,2.6994,2.6997,2.6854,2.6887,2.6869,2.6826,2.6685,2.6679,2.6673,2.6652,2.6642,2.6633,0,0,0,0,0,0,2.7258,2.7213,2.7217,2.7143,2.7105,2.706,2.702,2.7022,2.6974,2.6977,2.6956,2.6943,2.6866,2.6839,2.6876,2.6741,2.6771,2.6762,2.6761,2.6751,2.6744,2.6749,2.6893,0,0,0,0,0,2.7246,2.72,2.7162,2.7099,2.7081,2.7054,2.7025,2.7017,2.6974,2.6957,2.6923,2.6878,2.6823,2.6786,2.6734,2.6647,2.6631,2.6608,2.66,2.6594,2.6584,2.653,2.6518,2.6652,2.6652,2.6652,0,0,2.7217,2.7188,2.7159,2.7095,2.7064,2.7012,2.704,2.6985,2.6945,2.6947,2.6872,2.6846,2.6794,2.6711,2.6673,2.6686,2.6544,2.6587,2.6582,2.6575,2.6523,2.651,2.6499,2.6648,2.6649,2.6649,0,0,2.7139,2.7115,2.7058,2.7028,2.6984,2.6966,2.6953,2.6907,2.689,2.6817,2.6817,2.6767,2.6674,2.6635,2.6604,2.6512,2.651,2.6495,2.6452,2.64,2.6389,2.638,2.6341,2.6328,2.6486,2.6486,2.6486,0,2.7108,2.7035,2.7028,2.6972,2.6941,2.6947,2.6886,2.6856,2.6794,2.677,2.6788,2.6669,2.6635,2.6541,2.6518,2.6495,2.6473,2.6498,2.6393,2.6383,2.6373,2.6336,2.6322,2.6484,2.6485,2.6485,2.6485,0,2.6997,2.6946,2.6905,2.6849,2.6815,2.6757,2.6735,2.67,2.6696,2.6675,2.6597,2.6557,2.6494,2.6472,2.6466,2.6375,2.6385,2.6398,2.6426,2.6359,2.6323,2.6309,2.6481,2.6482,2.6483,2.6483,0,0,2.6899,2.6842,2.6826,2.6799,2.6751,2.6709,2.665,2.6593,2.656,2.6518,2.6463,2.6385,2.6396,2.636,2.635,2.6306,2.6228,2.6323,2.6321,2.6302,2.6119,2.6105,2.6089,2.623,2.6227,2.6225,2.6121,0,2.6811,2.6711,2.6702,2.6609,2.6558,2.6563,2.6511,2.6472,2.6452,2.6402,2.6378,2.632,2.6343,2.6321,2.6278,2.6247,2.619,2.6255,2.6171,2.6169,2.6178,2.6071,2.6056,2.596,2.6108,2.6105,2.6104,0,2.6695,2.6652,2.6555,2.6512,2.649,2.6444,2.6389,2.6345,2.6299,2.6287,2.6248,2.6243,2.6176,2.6212,2.6116,2.616,2.6126,2.6106,2.6102,2.6088,2.6128,2.6048,2.593,2.5912,2.6083,2.6084,2.6086,0,2.6625,2.6545,2.6475,2.6453,2.6402,2.6368,2.6345,2.6303,2.6268,2.6219,2.6195,2.6139,2.6105,2.6059,2.6037,2.6066,2.594,2.5975,2.5921,2.5921,2.5889,2.589,2.5757,2.5878,2.5879,2.5879,2.5879,0,2.6524,2.6463,2.6443,2.6399,2.6329,2.6319,2.6249,2.6226,2.6189,2.6136,2.6138,2.6088,2.6065,2.601,2.5993,2.5912,2.5899,2.5882,2.5876,2.5878,2.5879,2.585,2.5853,2.5875,2.5876,2.5877,2.5877,0,2.6432,2.6418,2.6341,2.6301,2.6289,2.6239,2.6201,2.6156,2.6138,2.6072,2.6055,2.6024,2.5959,2.5935,2.5855,2.5843,2.5748,2.5752,2.5764,2.5761,2.5706,2.5709,2.5544,2.5519,2.5663,2.5662,2.5661,0,2.6366,2.6319,2.6275,2.6243,2.6219,2.6167,2.6132,2.612,2.6083,2.6028,2.5988,2.5926,2.5874,2.5769,2.5736,2.5673,2.5671,2.5618,2.5661,2.5663,2.5662,2.5662,2.5654,2.5607,2.5606,2.5605,2.5604,0,2.6247,2.6242,2.6195,2.6145,2.6105,2.6063,2.6023,2.5995,2.5976,2.5933,2.587,2.583,2.5751,2.5685,2.5622,2.5592,2.5591,2.5592,2.5574,2.5571,2.5578,2.5567,2.5735,2.5593,2.5594,2.5595,2.5596,2.5596,2.6161,2.6118,2.608,2.6026,2.5996,2.5958,2.5913,2.5891,2.5839,2.5775,2.5771,2.5701,2.5654,2.5569,2.5537,2.5477,2.5491,2.5468,2.546,2.5453,2.5446,2.5594,2.5467,2.5467,2.5467,2.5467,2.5468,0,2.6036,2.6013,2.5964,2.5909,2.5866,2.5878,2.5833,2.5794,2.5734,2.5693,2.5643,2.5567,2.5504,2.5467,2.5403,2.5362,2.536,2.5344,2.5343,2.5335,2.5441,2.5459,2.5347,2.5347,2.5347,2.5347,2.5347,2.5347,2.5966,2.5893,2.5883,2.5793,2.5769,2.5704,2.5677,2.564,2.5607,2.5524,2.5473,2.5452,2.541,2.5342,2.5283,2.5273,2.5246,2.5228,2.5218,2.5316,2.5328,2.534,2.5356,2.5224,2.5224,2.5116,2.5115,2.5114]}]]